Tracking 19575 objects as of 19-Feb-2019
HD Live streaming from Space Station
objects crossing your sky now

THORAD DELTA 1 DEB

Track THORAD DELTA 1 DEB now!
10-day predictions


NORAD ID: 8437
Int'l Code: 1974-089CN
Perigee: 1,402.8 km
Apogee: 1,473.0 km
Inclination: 101.6 °
Period: 114.5 minutes
Semi major axis: 7808 km
RCS: 0.058 m2 (small)
Launch date: November 15, 1974
Source: United States (US)
Launch site: AIR FORCE WESTERN TEST RANGE (AFWTR)

Note: This is SATELLITE DEBRIS
aabbcc
Your satellite tracking list
Your tracking list is empty




NASA's NSSDC Master Catalog

Two Line Element Set (TLE):
1  8437U 74089CN  19049.79818253 -.00000057  00000-0 -69592-4 0  9995
2  8437 101.5938  13.3406 0044904 285.1016 137.2404 12.58110519 32494
Source of the keplerian elements: AFSPC